Theta_e
342 343 343 343 342 342 341 341 343 342 343 342 341 340 340 340 339 338 338 338 334 333 334 333 332 333 332 332 332 333 333 333 333 332 331 331 332 329 329 330 328 329 329
341 342 341 343 342 343 343 342 339 341 342 340 340 341 341 340 339 339 338 338 336 333 332 333 333 331 333 333 332 332 333 333 333 333 332 330 332 330 329 329 327 327 329
337 339 340 340 340 341 343 340 341 339 338 340 340 339 340 341 340 340 339 339 338 335 333 334 333 332 334 333 332 331 332 333 334 333 333 332 331 331 329 329 329 326 328
329 332 336 337 338 338 337 336 339 339 338 338 339 340 340 339 340 340 339 339 339 337 336 334 335 333 334 334 333 332 331 332 333 334 333 333 332 331 330 329 329 328 327
315 318 325 327 331 334 335 335 336 338 336 333 334 336 337 339 339 339 339 339 339 339 338 337 336 335 333 334 333 331 330 330 331 333 333 333 332 331 330 329 329 329 326
309 312 315 317 320 325 329 334 335 336 334 332 332 336 336 336 337 339 338 338 338 338 339 338 337 336 333 333 333 333 332 330 330 331 332 333 333 332 331 330 329 329 328
307 309 310 312 314 317 321 324 328 332 334 332 330 332 329 327 335 337 338 337 337 338 338 338 337 337 336 333 334 335 334 332 330 329 329 332 332 332 332 330 329 328 329
304 305 307 308 310 312 314 318 322 322 326 330 332 332 334 332 333 334 336 336 337 337 337 337 337 338 337 336 335 335 335 334 331 329 329 329 330 332 332 331 329 328 328
302 303 304 305 307 308 310 312 315 318 321 322 328 331 333 335 334 335 335 336 336 336 336 335 336 336 336 336 336 336 335 334 333 330 329 328 329 329 330 330 330 329 327
300 300 301 302 302 304 306 308 309 311 313 316 320 323 329 331 334 335 332 333 333 334 333 332 331 331 331 333 334 334 335 334 333 332 331 330 328 328 328 329 330 329 326
299 298 298 298 299 299 301 302 303 306 310 312 315 317 320 328 331 333 332 331 331 330 329 326 326 327 328 328 330 332 332 334 334 332 332 331 331 329 329 329 329 329 326
297 297 296 295 296 297 298 299 300 302 303 305 308 311 314 319 327 330 332 331 330 329 328 327 326 326 327 327 328 328 329 330 333 333 331 331 330 331 330 328 329 329 328
294 294 294 294 294 295 295 296 298 299 300 302 304 306 310 314 317 318 326 332 333 330 329 328 327 326 326 327 327 328 328 325 327 331 332 331 330 329 330 330 329 329 328
291 291 291 292 293 293 293 294 295 296 298 299 301 303 304 307 311 316 317 326 333 332 329 330 329 328 327 327 327 328 329 327 325 326 331 332 331 330 329 329 328 328 326
289 289 290 290 291 291 292 292 293 294 295 296 298 301 302 304 306 310 315 317 327 332 332 329 330 328 326 326 327 328 329 329 325 323 323 331 332 331 330 329 328 327 325
287 288 288 289 289 290 290 291 291 292 293 294 296 298 300 303 304 306 310 315 320 326 332 326 327 328 328 327 327 328 328 328 327 323 322 328 332 331 331 330 329 328 327
286 286 287 288 288 288 289 289 290 290 292 294 295 297 298 301 302 305 306 311 316 323 328 327 326 327 329 329 329 329 329 329 328 326 323 325 330 331 331 330 329 328 325
286 285 286 286 287 287 287 288 288 289 291 292 293 294 296 297 299 304 306 307 312 318 324 329 326 326 328 329 329 330 330 329 329 328 323 324 325 330 331 330 329 328 324
285 285 285 285 287 287 286 286 287 287 287 289 291 293 294 296 299 301 303 307 309 313 321 324 326 324 327 328 329 329 330 330 329 329 328 326 325 326 330 330 329 328 324
284 284 284 284 286 285 285 285 286 285 285 286 287 289 294 295 297 299 300 306 309 311 317 321 324 325 325 326 328 329 330 329 327 327 325 325 325 325 327 329 328 327 324
283 283 283 283 284 284 283 283 285 284 284 283 284 285 286 288 291 294 297 302 305 311 314 319 322 323 325 325 326 327 328 326 325 325 324 325 325 325 325 327 328 327 324
282 281 281 282 282 282 281 281 282 283 282 282 282 283 284 285 289 289 289 288 294 298 303 313 319 322 322 323 324 324 325 326 320 320 323 323 323 323 324 324 327 326 324
281 281 280 280 280 280 280 280 280 281 280 280 281 281 282 283 285 286 286 286 286 287 289 295 302 291 297 297 300 312 320 324 324 322 319 318 317 317 319 318 321 325 325
281 280 279 279 279 279 279 279 279 279 279 278 278 280 281 281 282 283 284 284 284 284 285 286 286 286 287 291 297 300 306 307 319 318 315 307 310 309 312 309 309 314 318
280 279 278 278 278 278 278 278 278 278 278 277 277 278 278 279 280 280 281 282 282 283 284 284 284 285 285 287 296 301 297 299 301 297 301 303 296 299 298 299 299 301 303
279 279 278 278 277 277 277 276 276 276 276 277 276 276 277 278 278 278 279 280 281 282 282 283 284 284 284 285 285 287 286 291 294 298 289 292 292 294 293 292 293 293 295
Wind_Speed
18 18 18 18 17 18 20 20 19 20 20 20 19 20 20 19 19 18 16 19 18 19 19 18 18 20 19 20 21 23 25 26 26 28 27 29 30 27 28 26 26 26 27
16 17 18 18 19 19 18 19 22 21 21 19 19 20 22 21 20 20 19 18 20 20 21 22 20 21 22 23 21 22 26 27 28 29 30 30 31 29 28 29 28 28 30
8 14 17 18 20 19 18 15 19 22 22 19 21 20 21 22 24 23 21 21 18 19 22 22 23 21 23 22 21 21 24 28 29 29 31 32 31 31 29 30 30 31 32
7 9 8 9 13 17 16 15 18 19 25 19 21 16 20 23 23 25 24 22 21 19 19 22 24 22 24 24 22 22 24 27 30 30 31 32 33 32 30 30 31 32 32
10 9 9 12 14 11 16 18 21 19 20 23 25 26 26 25 27 24 26 24 24 22 20 20 24 25 26 27 26 23 24 25 29 31 32 33 33 33 33 32 32 34 33
12 11 9 9 9 10 12 17 21 21 19 17 17 21 24 32 32 26 26 24 25 25 22 21 20 24 28 29 27 23 25 26 27 29 31 33 34 35 34 33 33 35 36
12 11 10 11 10 10 12 15 17 18 24 27 20 20 34 34 40 25 23 24 25 25 22 21 21 21 21 27 28 27 26 28 28 29 30 32 35 36 37 34 33 34 38
14 12 12 12 11 12 12 12 12 12 15 19 12 19 8 22 27 27 28 28 26 23 23 21 23 23 20 21 26 29 29 29 30 31 31 31 34 35 37 36 36 35 37
14 13 12 12 12 12 13 15 13 13 13 14 17 14 7 10 14 23 28 27 26 25 26 20 23 24 21 24 24 26 30 30 32 33 32 32 33 34 35 35 36 35 37
15 15 14 13 13 14 13 16 15 15 14 17 13 24 30 27 9 9 11 23 25 26 24 23 24 25 21 22 24 28 30 31 33 33 34 35 34 34 34 35 35 35 37
14 15 15 16 16 16 15 16 19 17 17 19 20 18 19 24 29 14 8 10 21 24 30 26 33 25 30 32 28 28 32 36 33 33 35 36 36 35 35 34 35 35 36
16 15 16 18 16 16 16 18 19 20 19 19 21 22 21 11 11 17 13 13 16 26 29 29 34 31 34 31 37 39 33 34 36 36 36 37 38 39 38 37 36 36 35
18 19 21 19 19 19 19 21 22 22 21 21 21 22 25 25 25 24 22 13 14 25 28 32 31 33 37 37 37 39 38 39 35 37 40 39 39 40 40 40 38 38 38
19 20 21 21 19 19 19 19 21 23 21 23 24 25 25 27 26 25 22 15 13 15 26 27 28 30 36 34 36 40 37 38 32 31 40 43 42 41 41 41 40 40 41
19 20 20 21 20 20 19 19 20 21 21 24 24 24 28 27 26 28 27 28 19 14 15 26 27 29 28 32 36 39 33 32 37 39 38 45 44 43 43 41 40 39 40
19 20 21 21 21 21 21 20 20 19 21 23 24 25 26 26 26 25 30 31 32 23 16 29 28 30 27 27 30 33 34 35 42 44 43 39 45 45 45 42 40 39 39
20 20 20 21 22 23 22 22 22 23 23 23 23 25 27 25 26 27 25 31 32 33 17 27 31 30 24 25 25 28 31 32 29 36 38 34 41 46 46 44 41 39 38
19 19 20 21 23 24 23 23 22 21 22 24 25 26 27 26 28 26 29 28 34 32 32 19 28 30 33 21 24 26 26 29 30 31 38 38 34 43 44 44 40 38 37
20 20 20 21 23 25 25 25 22 22 22 21 20 25 28 27 28 26 29 28 28 32 33 29 27 28 30 28 23 27 28 26 26 28 32 32 33 36 42 44 41 39 38
20 21 22 23 25 26 25 25 22 24 25 24 22 26 14 22 24 25 28 25 28 27 28 31 26 27 28 27 26 25 23 22 24 28 32 31 30 29 38 43 42 40 39
20 21 23 26 30 31 33 29 24 26 28 32 29 27 23 19 8 12 17 23 24 19 25 26 26 22 24 24 21 18 24 22 24 30 31 30 29 30 35 40 44 43 41
20 23 25 27 32 35 36 32 28 27 30 33 34 31 28 28 13 18 21 27 4 14 16 19 18 20 26 24 24 22 20 18 5 22 27 30 30 33 36 40 45 45 44
19 22 28 30 32 38 37 33 29 26 31 34 37 35 33 35 28 22 20 24 30 31 24 7 6 11 10 10 11 16 20 32 20 14 29 20 29 31 33 34 39 43 44
19 22 25 28 28 35 37 35 28 28 29 33 36 42 37 39 36 29 27 31 32 32 34 28 23 17 17 11 7 12 10 25 16 15 23 4 21 26 31 30 31 35 38
19 22 23 25 29 30 36 35 29 27 30 32 34 39 43 40 39 33 35 31 32 35 31 27 29 28 28 30 18 5 11 13 2 7 2 2 7 12 19 25 24 24 26
18 18 22 25 26 30 35 35 32 28 29 28 31 35 38 41 39 40 36 32 29 28 29 32 36 37 36 37 40 32 26 11 7 1 17 12 1 3 1 10 19 15 13
Wind_Direction
241 228 220 222 222 225 225 222 220 221 227 228 233 242 245 244 244 244 248 253 242 246 251 245 236 231 235 233 229 229 230 228 226 225 223 223 222 221 217 212 215 208 205
248 236 232 228 225 225 227 233 228 227 225 238 238 240 247 251 249 249 249 250 250 242 246 251 246 238 238 236 234 232 231 231 229 228 227 228 228 227 223 217 215 217 210
246 257 255 249 241 238 231 235 233 232 237 235 231 240 248 252 253 250 248 252 253 251 244 247 246 242 233 232 233 237 235 233 233 232 230 231 231 229 227 224 220 220 216
312 287 280 287 276 262 259 234 235 220 214 221 244 240 252 252 252 249 248 246 246 245 246 242 243 239 228 229 231 241 242 237 234 235 234 232 232 232 229 227 226 221 222
355 345 323 295 279 276 254 253 249 239 234 225 232 245 250 252 250 248 247 244 241 240 238 241 243 238 230 228 236 238 235 237 239 236 235 234 235 233 231 230 227 226 220
353 345 327 324 324 299 280 264 258 248 244 238 231 228 235 248 243 239 240 237 241 236 239 233 236 238 232 230 238 241 237 237 237 241 237 236 235 234 232 233 229 228 225
346 345 330 325 320 302 294 278 275 282 257 251 255 263 252 247 238 234 240 237 232 236 226 234 230 230 233 231 237 241 242 238 238 239 239 237 236 234 234 230 229 231 229
344 342 334 322 315 306 299 292 286 297 285 256 240 243 255 250 252 247 240 237 228 220 219 219 230 231 231 233 237 239 241 241 237 240 240 237 238 238 238 232 227 230 231
336 334 328 321 316 312 305 298 289 279 279 275 262 248 242 246 256 232 231 229 223 214 213 197 224 227 228 236 236 240 242 241 240 237 240 241 237 238 241 242 236 231 233
329 328 326 324 320 310 303 297 293 282 273 274 288 261 258 262 272 246 234 224 226 220 211 205 217 228 223 237 237 238 239 242 239 237 237 240 239 238 239 241 238 235 234
324 325 323 321 317 308 300 294 291 284 274 271 267 270 276 267 253 252 251 212 222 228 234 226 228 237 236 233 238 242 243 239 240 237 237 237 238 237 239 237 238 236 237
324 324 323 319 313 309 306 297 290 285 280 270 268 265 258 261 261 247 245 242 228 229 233 244 246 246 246 245 241 240 239 244 240 240 236 236 236 237 236 237 238 238 241
328 324 323 317 315 309 299 293 288 283 278 274 268 267 266 259 258 272 283 248 251 245 244 245 246 249 242 240 237 237 236 242 245 242 239 237 234 234 236 237 238 241 244
328 324 321 317 314 306 301 295 289 284 283 278 272 266 266 263 262 263 260 285 255 252 252 250 244 249 242 234 233 232 233 238 241 249 244 238 236 234 235 237 241 244 247
331 328 327 325 320 314 309 303 293 288 283 278 277 273 266 264 261 259 261 256 265 250 251 244 241 245 246 236 227 224 230 237 245 257 258 239 237 236 236 237 240 243 245
339 338 336 334 330 325 320 313 305 297 287 282 277 273 267 263 261 260 257 259 261 255 258 251 249 243 242 242 237 234 233 237 246 255 254 242 235 237 238 237 239 240 245
349 346 342 340 339 335 332 324 317 307 298 291 281 273 270 271 265 262 259 256 257 253 253 254 256 260 241 237 239 238 237 236 239 245 245 249 236 236 237 239 238 240 242
357 356 355 353 349 346 341 335 328 321 313 299 288 278 272 270 266 263 257 259 257 255 253 256 250 252 252 250 238 240 235 235 235 242 241 247 240 234 234 237 236 237 238
7 8 7 5 359 356 352 351 350 346 339 325 310 297 267 267 267 259 258 261 257 259 254 252 257 247 252 245 239 240 236 231 231 235 242 242 243 238 232 232 231 233 233
12 15 15 15 13 10 6 3 3 3 360 355 351 353 290 263 264 266 262 265 257 254 266 251 257 252 245 247 248 236 228 219 218 227 238 243 244 242 235 230 229 230 230
17 21 22 22 19 19 16 16 15 15 12 7 5 9 7 358 338 298 269 267 271 266 251 258 248 258 250 245 232 230 232 225 226 231 236 239 238 239 239 234 228 228 227
21 23 26 25 24 20 15 18 23 19 18 15 13 8 14 21 26 40 62 60 21 275 279 274 281 252 257 247 242 221 227 218 227 222 227 231 233 234 235 233 228 226 225
22 25 26 24 24 20 18 17 21 25 23 17 18 15 20 23 37 38 40 52 53 51 53 7 332 7 337 322 316 264 274 233 225 223 212 219 224 227 229 229 228 226 227
26 27 29 26 26 21 19 19 22 23 25 24 21 23 24 25 26 41 42 45 43 42 41 45 52 43 27 360 308 270 284 306 204 198 201 196 212 217 222 224 225 225 225
30 30 31 28 27 24 21 21 24 23 22 23 23 27 27 26 25 31 44 39 39 36 43 40 45 45 42 41 49 54 20 313 335 21 190 274 195 200 215 216 220 223 222
33 31 33 31 27 24 25 25 27 25 23 19 23 24 27 28 29 31 36 35 32 21 25 31 37 36 34 41 48 50 38 11 359 101 14 1 60 137 186 223 217 226 225